sat.trackr.live / text

‹ back to catalog

QIANFAN-76

NORAD 63162 · 2025-046D

PAYLOAD ACTIVE UNKNOWN

§ Identity

Operator
Country
PRC
Launch date
2025-03-11
Launch site
WSC
Launch vehicle
Mass (kg)
RCS (m²)

External: N2YO · Heavens-Above · Gunter

§ Orbital elements

Epoch: 2026-05-25T04:16:57.216864Z

Period
106.59 min
Inclination
88.9692°
Eccentricity
0.0013974
Mean motion
13.51008441 rev/d
Perigee alt
1,058.1 km
Apogee alt
1,079.0 km
Semi-major
7,446.7 km
B*
2.2066e-4
RAAN
303.1843°
Arg perigee
23.6665°
Mean anomaly
336.5126°
Rev number
6,942

§ Raw data

QIANFAN-761 63162U 25046D   26145.17844001  .00000155  00000+0  22066-3 0  99972 63162  88.9692 303.1843 0013974  23.6665 336.5126 13.51008441 69420

JSON: /api/v1/satellites/63162 · /tle

For live sub-satellite position, see the globe view (requires WebGL).

§ Visibility from observer

Set your observer location to see the next 7 days of passes ≥ 10°. The values pass through the URL so the page stays shareable.

No JS? Fill the form by hand. The geolocation button needs JavaScript.